Kosmos-1367

operational
NORAD ID: 13205 Int'l Des: 1982-045 Owner: PVO Country: SU
MEOELLIPTICALHEO_ELLIPTICALSEMI_SYNC

Über Kosmos-1367

Beschreibung wird geladen...

Live-Position

3D-Globus wird geladen...

Nächste Überflüge

Höhenverlauf

Altitude vs Time

uPlot chart will show altitude changes over time

Zweizeiliger Elementsatz

1 13205U 82045A 25304.74244420 .00000044 00000-0 00000+0 0 9998
2 13205 71.9842 75.1735 4968098 329.5011 9.1373 2.00464983318233
Epoch: 31. Okt. 2025 • Age: 2967 hours

Aktueller Status

Höhe 16133.1 km
Geschwindigkeit 4.52 km/s
Subsatellitenpunkt -40.58°S, 31.98°W
Startdatum 20. Mai 1982
Alter 43.7 years
Typ other

Technische Details

Klassifizierung Payload
Masse 1250.00 kg
Trockenmasse 1150.00 kg
Gesamtmasse 1250.00 kg
Länge 4.00 m
Durchmesser 2.00 m
Spannweite 5.00 m
Form Cyl + 2 Pan
Hersteller NPOL/KOMET
Bus-Typ Oko
Phasenstatus In Orbit
Besitzer/Staat PVO/SU

Große Konstellationen

Loading constellations...